QPF
0.01 0.02 0.02 0.02 0.02 0.02 0.03 0.02 0.02 0.02 0.03 0.04 0.03 0.02 0.03 0.05 0.06 0.04 0.02 0.02 0.02 0.02 0.02 0.02 0.04 0.04 0.04 0.04 0.06 0.06 0.04 0.03 0.04 0.03 0.02 0.02 0.02 0.03 0.04 0.04 0.05 0.06 0.05 0.04
0.02 0.02 0.01 0.01 0.02 0.02 0.02 0.03 0.02 0.02 0.03 0.03 0.02 0.02 0.03 0.04 0.04 0.04 0.03 0.02 0.02 0.01 0.01 0.01 0.02 0.03 0.03 0.03 0.04 0.06 0.05 0.04 0.02 0.02 0.02 0.02 0.02 0.02 0.01 0.02 0.03 0.04 0.05 0.04
0.02 0.01 0.01 0.01 0.02 0.03 0.02 0.02 0.02 0.02 0.02 0.02 0.02 0.03 0.03 0.03 0.03 0.03 0.04 0.04 0.03 0.02 0.01 0.01 0.01 0.01 0.02 0.03 0.03 0.05 0.06 0.05 0.03 0.02 0.02 0.02 0.01 0.01 0.01 0.01 0.01 0.02 0.03 0.03
0.01 0.01 0.01 0.01 0.02 0.03 0.03 0.01 0.02 0.01 0.03 0.03 0.02 0.03 0.02 0.02 0.02 0.02 0.03 0.03 0.03 0.02 0.02 0.01 0.01 0.01 0.02 0.02 0.03 0.04 0.05 0.06 0.06 0.04 0.03 0.02 0.01 0.01 0.01 0.01 0.02 0.02 0.01 0.02
0.01 0.00 0.01 0.01 0.02 0.02 0.02 0.01 0.02 0.02 0.02 0.04 0.03 0.02 0.02 0.01 0.02 0.01 0.01 0.01 0.02 0.02 0.02 0.01 0.02 0.01 0.02 0.03 0.03 0.03 0.04 0.04 0.05 0.07 0.06 0.04 0.03 0.02 0.02 0.02 0.01 0.01 0.01 0.01
0.01 0.01 0.01 0.01 0.02 0.03 0.02 0.03 0.04 0.04 0.05 0.05 0.03 0.02 0.01 0.01 0.01 0.01 0.00 0.00 0.01 0.01 0.01 0.01 0.01 0.02 0.02 0.02 0.02 0.02 0.03 0.03 0.03 0.04 0.05 0.06 0.07 0.05 0.04 0.04 0.02 0.01 0.01 0.00
0.01 0.01 0.01 0.01 0.02 0.04 0.05 0.04 0.06 0.08 0.07 0.04 0.01 0.01 0.01 0.01 0.01 0.00 0.00 0.00 0.00 0.00 0.00 0.01 0.01 0.01 0.02 0.02 0.02 0.02 0.02 0.02 0.02 0.03 0.04 0.04 0.05 0.06 0.05 0.06 0.06 0.05 0.03 0.02
0.01 0.01 0.01 0.02 0.02 0.03 0.05 0.05 0.04 0.04 0.03 0.01 0.00 0.01 0.01 0.01 0.00 0.00 0.00 0.00 0.00 0.00 0.00 0.00 0.00 0.00 0.01 0.01 0.02 0.02 0.02 0.02 0.02 0.01 0.01 0.02 0.02 0.02 0.03 0.04 0.05 0.05 0.04 0.02
0.00 0.01 0.01 0.01 0.01 0.01 0.03 0.04 0.03 0.02 0.01 0.00 0.00 0.00 0.00 0.00 0.00 0.00 0.00 0.00 0.00 0.00 0.00 0.00 0.00 0.00 0.00 0.01 0.01 0.02 0.02 0.02 0.02 0.02 0.01 0.01 0.02 0.02 0.02 0.02 0.02 0.03 0.04 0.03
0.00 0.01 0.01 0.01 0.01 0.01 0.01 0.02 0.02 0.02 0.01 0.01 0.01 0.00 0.00 0.00 0.00 0.00 0.00 0.00 0.00 0.00 0.00 0.00 0.00 0.00 0.00 0.01 0.01 0.01 0.02 0.02 0.02 0.02 0.02 0.01 0.01 0.02 0.02 0.02 0.02 0.02 0.03 0.04
0.00 0.01 0.01 0.01 0.01 0.01 0.01 0.02 0.02 0.02 0.01 0.01 0.02 0.00 0.00 0.00 0.00 0.00 0.00 0.00 0.00 0.00 0.00 0.00 0.00 0.00 0.00 0.01 0.01 0.01 0.01 0.02 0.03 0.02 0.01 0.01 0.01 0.01 0.01 0.02 0.02 0.01 0.02 0.02
0.01 0.01 0.01 0.00 0.00 0.01 0.01 0.01 0.01 0.01 0.01 0.00 0.00 0.00 0.00 0.00 0.00 0.00 0.00 0.00 0.00 0.00 0.00 0.00 0.00 0.00 0.00 0.00 0.01 0.01 0.01 0.02 0.02 0.01 0.01 0.01 0.01 0.01 0.01 0.01 0.01 0.01 0.02 0.02
0.01 0.01 0.01 0.01 0.00 0.00 0.01 0.01 0.00 0.00 0.00 0.00 0.00 0.00 0.00 0.00 0.00 0.00 0.00 0.00 0.00 0.00 0.00 0.00 0.00 0.00 0.00 0.00 0.01 0.01 0.01 0.02 0.02 0.01 0.01 0.01 0.00 0.00 0.01 0.01 0.01 0.01 0.01 0.01
0.01 0.01 0.01 0.01 0.00 0.00 0.00 0.00 0.00 0.00 0.00 0.00 0.00 0.00 0.00 0.00 0.00 0.00 0.00 0.00 0.00 0.00 0.00 0.00 0.00 0.00 0.00 0.00 0.00 0.01 0.02 0.01 0.02 0.01 0.01 0.01 0.01 0.01 0.01 0.01 0.01 0.01 0.01 0.01
0.01 0.01 0.01 0.00 0.00 0.00 0.00 0.00 0.00 0.00 0.00 0.00 0.00 0.00 0.00 0.00 0.00 0.00 0.00 0.00 0.00 0.00 0.00 0.00 0.00 0.00 0.00 0.00 0.00 0.01 0.02 0.02 0.01 0.01 0.01 0.01 0.01 0.01 0.01 0.01 0.01 0.01 0.01 0.01
0.01 0.01 0.01 0.00 0.00 0.00 0.00 0.00 0.01 0.00 0.00 0.00 0.00 0.00 0.00 0.00 0.00 0.00 0.00 0.00 0.00 0.00 0.00 0.00 0.00 0.00 0.00 0.00 0.00 0.00 0.01 0.02 0.01 0.01 0.01 0.01 0.01 0.01 0.01 0.01 0.01 0.01 0.01 0.01
0.01 0.01 0.01 0.00 0.00 0.00 0.00 0.00 0.01 0.01 0.00 0.00 0.00 0.00 0.00 0.00 0.00 0.00 0.00 0.00 0.00 0.00 0.00 0.00 0.00 0.00 0.00 0.00 0.00 0.00 0.00 0.00 0.01 0.01 0.01 0.01 0.01 0.01 0.01 0.01 0.01 0.01 0.01 0.01
0.01 0.01 0.01 0.01 0.00 0.01 0.00 0.00 0.00 0.00 0.01 0.00 0.00 0.00 0.00 0.00 0.00 0.00 0.00 0.00 0.00 0.00 0.00 0.00 0.00 0.00 0.00 0.00 0.00 0.00 0.00 0.00 0.00 0.00 0.00 0.01 0.01 0.01 0.01 0.01 0.01 0.00 0.01 0.01
0.01 0.01 0.02 0.01 0.01 0.00 0.00 0.00 0.00 0.00 0.00 0.00 0.00 0.00 0.00 0.00 0.00 0.00 0.00 0.00 0.00 0.00 0.00 0.00 0.00 0.00 0.00 0.00 0.00 0.00 0.00 0.00 0.00 0.01 0.01 0.01 0.01 0.01 0.01 0.00 0.01 0.01 0.01 0.02
0.01 0.01 0.02 0.02 0.01 0.00 0.00 0.00 0.00 0.00 0.00 0.00 0.00 0.00 0.00 0.00 0.00 0.00 0.00 0.00 0.00 0.00 0.00 0.00 0.00 0.00 0.00 0.00 0.00 0.01 0.01 0.01 0.01 0.01 0.01 0.01 0.01 0.01 0.01 0.01 0.01 0.01 0.01 0.01
0.01 0.02 0.03 0.02 0.01 0.00 0.00 0.00 0.00 0.00 0.00 0.00 0.00 0.00 0.00 0.00 0.00 0.00 0.00 0.00 0.00 0.00 0.00 0.00 0.00 0.00 0.00 0.00 0.00 0.00 0.00 0.01 0.01 0.02 0.01 0.01 0.01 0.02 0.01 0.01 0.01 0.01 0.01 0.01
0.01 0.01 0.01 0.01 0.01 0.00 0.00 0.00 0.00 0.00 0.00 0.00 0.00 0.00 0.00 0.00 0.00 0.00 0.00 0.00 0.00 0.00 0.00 0.00 0.00 0.00 0.00 0.00 0.00 0.00 0.00 0.01 0.01 0.01 0.01 0.01 0.01 0.01 0.01 0.01 0.01 0.01 0.01 0.00
0.01 0.01 0.01 0.00 0.00 0.00 0.00 0.00 0.00 0.00 0.00 0.00 0.00 0.00 0.00 0.00 0.00 0.00 0.00 0.00 0.00 0.00 0.00 0.00 0.00 0.00 0.00 0.00 0.00 0.00 0.00 0.00 0.00 0.01 0.01 0.01 0.01 0.01 0.01 0.01 0.01 0.01 0.00 0.00
0.01 0.01 0.01 0.01 0.00 0.00 0.00 0.00 0.00 0.00 0.00 0.00 0.00 0.00 0.00 0.00 0.00 0.00 0.00 0.00 0.00 0.00 0.00 0.00 0.00 0.00 0.00 0.00 0.00 0.00 0.00 0.00 0.00 0.00 0.01 0.01 0.01 0.01 0.01 0.01 0.01 0.00 0.00 0.00
0.01 0.01 0.01 0.01 0.00 0.00 0.00 0.00 0.00 0.00 0.00 0.00 0.00 0.00 0.00 0.00 0.00 0.00 0.00 0.00 0.00 0.00 0.00 0.00 0.00 0.00 0.00 0.00 0.00 0.00 0.00 0.00 0.00 0.00 0.01 0.01 0.01 0.01 0.01 0.01 0.00 0.00 0.00 0.00
0.01 0.01 0.01 0.01 0.00 0.00 0.00 0.00 0.00 0.00 0.00 0.00 0.00 0.00 0.00 0.00 0.00 0.00 0.00 0.00 0.00 0.00 0.00 0.00 0.00 0.00 0.00 0.00 0.00 0.00 0.00 0.00 0.00 0.00 0.00 0.00 0.00 0.01 0.01 0.01 0.00 0.00 0.00 0.00
MSLP
1025.73 1026.38 1026.98 1027.48 1027.87 1028.16 1028.34 1028.46 1028.54 1028.61 1028.69 1028.80 1028.93 1029.07 1029.19 1029.26 1029.29 1029.25 1029.14 1029.00 1028.84 1028.70 1028.60 1028.58 1028.63 1028.76 1028.97 1029.22 1029.50 1029.79 1030.07 1030.33 1030.57 1030.79 1030.99 1031.18 1031.34 1031.48 1031.58 1031.65 1031.68 1031.70 1031.70 1031.71
1027.05 1027.64 1028.12 1028.47 1028.70 1028.84 1028.90 1028.94 1028.98 1029.04 1029.11 1029.20 1029.27 1029.31 1029.30 1029.21 1029.06 1028.84 1028.58 1028.31 1028.07 1027.86 1027.73 1027.68 1027.72 1027.84 1028.03 1028.27 1028.56 1028.87 1029.20 1029.53 1029.87 1030.19 1030.49 1030.75 1030.97 1031.13 1031.23 1031.29 1031.31 1031.32 1031.34 1031.39
1028.34 1028.86 1029.24 1029.47 1029.57 1029.60 1029.59 1029.58 1029.59 1029.62 1029.66 1029.68 1029.65 1029.55 1029.35 1029.07 1028.72 1028.34 1027.94 1027.57 1027.27 1027.04 1026.89 1026.84 1026.87 1026.96 1027.12 1027.33 1027.59 1027.90 1028.25 1028.64 1029.05 1029.45 1029.83 1030.17 1030.44 1030.63 1030.74 1030.80 1030.82 1030.83 1030.88 1030.98
1029.49 1029.94 1030.22 1030.35 1030.37 1030.34 1030.30 1030.28 1030.28 1030.29 1030.27 1030.19 1030.01 1029.71 1029.30 1028.80 1028.25 1027.69 1027.18 1026.75 1026.42 1026.21 1026.09 1026.06 1026.09 1026.17 1026.29 1026.45 1026.66 1026.94 1027.28 1027.68 1028.12 1028.58 1029.02 1029.41 1029.73 1029.94 1030.07 1030.14 1030.17 1030.21 1030.29 1030.43
1030.40 1030.77 1030.97 1031.03 1031.01 1030.97 1030.94 1030.95 1030.96 1030.95 1030.86 1030.65 1030.28 1029.76 1029.10 1028.36 1027.60 1026.89 1026.29 1025.83 1025.52 1025.36 1025.31 1025.33 1025.39 1025.46 1025.55 1025.66 1025.80 1026.01 1026.31 1026.68 1027.13 1027.61 1028.08 1028.50 1028.84 1029.09 1029.23 1029.31 1029.36 1029.42 1029.54 1029.74
1031.04 1031.31 1031.43 1031.46 1031.44 1031.43 1031.46 1031.52 1031.57 1031.54 1031.38 1031.03 1030.47 1029.70 1028.79 1027.80 1026.84 1025.99 1025.31 1024.85 1024.59 1024.51 1024.55 1024.65 1024.76 1024.84 1024.90 1024.94 1025.02 1025.15 1025.37 1025.70 1026.11 1026.58 1027.05 1027.49 1027.84 1028.09 1028.25 1028.34 1028.41 1028.51 1028.66 1028.91
1031.38 1031.55 1031.61 1031.62 1031.64 1031.70 1031.83 1031.98 1032.08 1032.06 1031.83 1031.34 1030.58 1029.58 1028.42 1027.20 1026.05 1025.07 1024.33 1023.87 1023.67 1023.68 1023.82 1024.01 1024.18 1024.28 1024.32 1024.31 1024.30 1024.35 1024.49 1024.75 1025.11 1025.55 1026.00 1026.43 1026.78 1027.03 1027.20 1027.30 1027.38 1027.50 1027.69 1027.98
1031.48 1031.56 1031.57 1031.58 1031.66 1031.83 1032.07 1032.32 1032.50 1032.50 1032.22 1031.62 1030.69 1029.48 1028.10 1026.67 1025.35 1024.25 1023.46 1023.00 1022.85 1022.94 1023.16 1023.43 1023.64 1023.76 1023.78 1023.73 1023.65 1023.62 1023.69 1023.87 1024.18 1024.57 1024.99 1025.39 1025.73 1025.98 1026.13 1026.23 1026.33 1026.46 1026.67 1026.99
1031.42 1031.42 1031.40 1031.44 1031.59 1031.86 1032.22 1032.59 1032.85 1032.88 1032.58 1031.90 1030.84 1029.47 1027.91 1026.32 1024.86 1023.67 1022.83 1022.36 1022.23 1022.35 1022.63 1022.93 1023.16 1023.28 1023.28 1023.18 1023.05 1022.95 1022.95 1023.08 1023.33 1023.67 1024.06 1024.44 1024.76 1024.99 1025.13 1025.22 1025.30 1025.44 1025.66 1025.99
1031.31 1031.26 1031.23 1031.29 1031.51 1031.87 1032.34 1032.80 1033.13 1033.20 1032.90 1032.17 1031.04 1029.57 1027.91 1026.22 1024.67 1023.40 1022.51 1022.01 1021.86 1021.98 1022.25 1022.54 1022.76 1022.85 1022.81 1022.66 1022.48 1022.33 1022.28 1022.37 1022.58 1022.89 1023.25 1023.60 1023.89 1024.10 1024.22 1024.29 1024.36 1024.47 1024.68 1025.01
1031.26 1031.18 1031.15 1031.24 1031.51 1031.93 1032.46 1032.98 1033.35 1033.44 1033.14 1032.41 1031.25 1029.76 1028.07 1026.34 1024.77 1023.47 1022.54 1021.99 1021.80 1021.86 1022.07 1022.30 1022.45 1022.48 1022.38 1022.18 1021.95 1021.77 1021.68 1021.74 1021.92 1022.21 1022.55 1022.87 1023.14 1023.32 1023.42 1023.46 1023.50 1023.59 1023.77 1024.07
1031.36 1031.27 1031.25 1031.35 1031.62 1032.05 1032.58 1033.09 1033.45 1033.53 1033.24 1032.52 1031.39 1029.94 1028.29 1026.61 1025.07 1023.78 1022.84 1022.26 1021.99 1021.96 1022.06 1022.18 1022.22 1022.16 1021.98 1021.73 1021.46 1021.24 1021.14 1021.18 1021.34 1021.61 1021.93 1022.23 1022.48 1022.63 1022.70 1022.71 1022.71 1022.76 1022.90 1023.17
1031.65 1031.58 1031.55 1031.64 1031.86 1032.23 1032.67 1033.10 1033.38 1033.41 1033.09 1032.39 1031.33 1029.97 1028.44 1026.88 1025.43 1024.21 1023.29 1022.68 1022.34 1022.20 1022.17 1022.15 1022.06 1021.89 1021.62 1021.31 1021.00 1020.76 1020.64 1020.66 1020.82 1021.07 1021.36 1021.64 1021.85 1021.98 1022.02 1022.00 1021.97 1021.98 1022.08 1022.29
1032.14 1032.10 1032.06 1032.08 1032.21 1032.43 1032.71 1032.96 1033.09 1033.01 1032.64 1031.95 1030.97 1029.74 1028.37 1026.98 1025.69 1024.59 1023.73 1023.11 1022.72 1022.47 1022.31 1022.14 1021.93 1021.64 1021.29 1020.91 1020.57 1020.31 1020.18 1020.19 1020.32 1020.54 1020.81 1021.05 1021.23 1021.33 1021.34 1021.29 1021.24 1021.22 1021.27 1021.44
1032.83 1032.80 1032.72 1032.65 1032.61 1032.62 1032.65 1032.65 1032.55 1032.30 1031.84 1031.15 1030.24 1029.16 1027.99 1026.82 1025.72 1024.77 1024.00 1023.42 1022.99 1022.66 1022.38 1022.09 1021.76 1021.37 1020.95 1020.53 1020.17 1019.89 1019.75 1019.74 1019.84 1020.02 1020.24 1020.44 1020.58 1020.64 1020.63 1020.57 1020.50 1020.46 1020.49 1020.62
1033.66 1033.62 1033.48 1033.26 1033.01 1032.75 1032.47 1032.16 1031.78 1031.31 1030.72 1030.00 1029.16 1028.24 1027.27 1026.32 1025.44 1024.67 1024.03 1023.50 1023.06 1022.68 1022.32 1021.93 1021.51 1021.06 1020.59 1020.15 1019.78 1019.50 1019.34 1019.30 1019.37 1019.50 1019.66 1019.80 1019.89 1019.92 1019.89 1019.82 1019.74 1019.70 1019.72 1019.83
1034.53 1034.47 1034.23 1033.85 1033.35 1032.78 1032.16 1031.50 1030.82 1030.12 1029.38 1028.62 1027.83 1027.04 1026.27 1025.54 1024.88 1024.28 1023.77 1023.31 1022.89 1022.49 1022.07 1021.63 1021.16 1020.67 1020.20 1019.76 1019.39 1019.12 1018.96 1018.90 1018.91 1018.98 1019.07 1019.14 1019.18 1019.17 1019.12 1019.05 1018.99 1018.96 1018.99 1019.08
1035.32 1035.22 1034.87 1034.30 1033.55 1032.67 1031.71 1030.72 1029.75 1028.81 1027.93 1027.11 1026.37 1025.70 1025.10 1024.57 1024.10 1023.67 1023.28 1022.89 1022.50 1022.09 1021.66 1021.19 1020.71 1020.23 1019.78 1019.37 1019.03 1018.78 1018.62 1018.53 1018.50 1018.50 1018.51 1018.50 1018.48 1018.43 1018.37 1018.30 1018.26 1018.25 1018.29 1018.39
1035.90 1035.73 1035.25 1034.49 1033.50 1032.35 1031.10 1029.83 1028.61 1027.48 1026.49 1025.65 1024.95 1024.39 1023.94 1023.58 1023.26 1022.97 1022.67 1022.34 1021.98 1021.58 1021.15 1020.69 1020.22 1019.78 1019.37 1019.01 1018.72 1018.50 1018.34 1018.23 1018.14 1018.07 1018.00 1017.92 1017.83 1017.74 1017.66 1017.60 1017.58 1017.59 1017.66 1017.76
1036.12 1035.85 1035.24 1034.31 1033.12 1031.75 1030.29 1028.82 1027.43 1026.20 1025.16 1024.32 1023.69 1023.23 1022.91 1022.69 1022.50 1022.30 1022.08 1021.80 1021.46 1021.07 1020.64 1020.20 1019.78 1019.38 1019.03 1018.74 1018.50 1018.32 1018.16 1018.02 1017.89 1017.75 1017.59 1017.44 1017.28 1017.14 1017.04 1016.97 1016.96 1017.00 1017.08 1017.19
1035.85 1035.46 1034.71 1033.65 1032.32 1030.81 1029.23 1027.67 1026.23 1024.98 1023.96 1023.19 1022.66 1022.32 1022.12 1022.01 1021.92 1021.80 1021.63 1021.38 1021.05 1020.67 1020.26 1019.85 1019.47 1019.13 1018.84 1018.61 1018.43 1018.27 1018.12 1017.95 1017.76 1017.55 1017.32 1017.08 1016.85 1016.66 1016.52 1016.45 1016.43 1016.48 1016.56 1016.67
1034.99 1034.46 1033.60 1032.44 1031.04 1029.49 1027.89 1026.35 1024.97 1023.80 1022.90 1022.26 1021.86 1021.66 1021.60 1021.59 1021.59 1021.53 1021.40 1021.17 1020.86 1020.50 1020.11 1019.73 1019.39 1019.10 1018.87 1018.69 1018.54 1018.40 1018.24 1018.04 1017.79 1017.51 1017.19 1016.87 1016.57 1016.32 1016.14 1016.03 1016.00 1016.03 1016.11 1016.20
1033.53 1032.86 1031.90 1030.68 1029.28 1027.78 1026.27 1024.87 1023.65 1022.66 1021.95 1021.50 1021.29 1021.25 1021.31 1021.42 1021.50 1021.51 1021.41 1021.22 1020.93 1020.60 1020.24 1019.90 1019.60 1019.35 1019.17 1019.02 1018.88 1018.74 1018.54 1018.30 1017.99 1017.62 1017.22 1016.82 1016.45 1016.13 1015.89 1015.74 1015.67 1015.67 1015.71 1015.77
1031.51 1030.71 1029.68 1028.46 1027.13 1025.77 1024.45 1023.27 1022.30 1021.57 1021.11 1020.89 1020.88 1021.02 1021.23 1021.46 1021.62 1021.70 1021.66 1021.51 1021.28 1020.98 1020.67 1020.37 1020.11 1019.91 1019.74 1019.60 1019.45 1019.27 1019.04 1018.73 1018.34 1017.89 1017.41 1016.93 1016.47 1016.09 1015.78 1015.57 1015.45 1015.40 1015.38 1015.39
1029.08 1028.17 1027.11 1025.96 1024.77 1023.61 1022.56 1021.68 1021.01 1020.58 1020.40 1020.43 1020.63 1020.94 1021.30 1021.64 1021.90 1022.06 1022.09 1022.02 1021.85 1021.62 1021.37 1021.13 1020.91 1020.73 1020.57 1020.41 1020.23 1020.00 1019.69 1019.30 1018.84 1018.31 1017.74 1017.18 1016.65 1016.19 1015.82 1015.54 1015.35 1015.22 1015.14 1015.07
1026.42 1025.46 1024.44 1023.41 1022.43 1021.55 1020.81 1020.26 1019.92 1019.81 1019.90 1020.16 1020.55 1021.02 1021.50 1021.94 1022.29 1022.53 1022.65 1022.66 1022.59 1022.45 1022.28 1022.10 1021.93 1021.76 1021.59 1021.40 1021.17 1020.86 1020.48 1020.00 1019.45 1018.84 1018.21 1017.57 1016.98 1016.46 1016.02 1015.66 1015.39 1015.18 1015.00 1014.84
Thickness
5574 5568 5561 5563 5569 5575 5574 5571 5569 5570 5572 5570 5569 5570 5574 5573 5570 5569 5568 5567 5566 5566 5566 5565 5563 5562 5560 5559 5560 5560 5560 5559 5558 5557 5556 5554 5553 5552 5551 5550 5548 5547 5546 5545
5564 5558 5560 5564 5568 5570 5569 5567 5564 5563 5566 5565 5563 5565 5570 5570 5570 5568 5568 5566 5565 5563 5562 5561 5560 5558 5557 5556 5556 5556 5556 5555 5553 5552 5551 5549 5548 5545 5544 5542 5540 5539 5537 5536
5559 5556 5560 5562 5560 5563 5561 5561 5559 5558 5557 5560 5560 5564 5569 5572 5570 5568 5567 5566 5564 5563 5561 5559 5558 5556 5554 5553 5553 5553 5551 5549 5548 5546 5545 5543 5540 5538 5536 5534 5532 5530 5529 5528
5548 5551 5556 5556 5554 5559 5559 5557 5556 5554 5552 5549 5554 5551 5564 5566 5566 5568 5566 5562 5561 5561 5559 5557 5556 5553 5552 5551 5549 5548 5545 5544 5542 5540 5538 5536 5534 5531 5529 5527 5525 5523 5521 5519
5545 5548 5551 5552 5552 5554 5554 5554 5553 5552 5550 5545 5547 5546 5556 5561 5566 5568 5567 5563 5560 5559 5557 5555 5553 5552 5550 5548 5545 5542 5540 5538 5536 5535 5532 5530 5528 5525 5522 5520 5517 5515 5513 5511
5542 5545 5545 5547 5550 5551 5550 5551 5549 5540 5537 5543 5548 5546 5556 5558 5569 5572 5568 5563 5560 5558 5554 5551 5549 5547 5545 5543 5540 5537 5535 5533 5531 5529 5527 5524 5522 5519 5515 5513 5510 5508 5506 5504
5544 5542 5541 5543 5547 5547 5548 5544 5533 5532 5522 5535 5544 5545 5555 5570 5571 5571 5569 5563 5559 5555 5551 5547 5545 5542 5539 5537 5535 5532 5530 5528 5525 5523 5521 5518 5516 5513 5509 5506 5503 5500 5498 5496
5545 5543 5539 5538 5542 5543 5545 5546 5536 5536 5531 5532 5537 5542 5563 5572 5571 5568 5565 5562 5557 5553 5548 5545 5543 5540 5536 5533 5530 5527 5525 5522 5520 5517 5515 5513 5510 5506 5504 5500 5497 5494 5493 5491
5541 5542 5536 5536 5537 5540 5543 5535 5537 5523 5509 5516 5533 5542 5560 5569 5568 5565 5561 5558 5554 5550 5547 5544 5540 5537 5533 5530 5527 5524 5521 5517 5514 5512 5510 5507 5504 5501 5498 5495 5491 5488 5486 5485
5538 5535 5534 5532 5534 5535 5536 5532 5521 5516 5520 5525 5537 5544 5555 5568 5564 5561 5557 5554 5552 5548 5544 5541 5537 5533 5530 5527 5523 5519 5516 5513 5510 5507 5505 5502 5499 5496 5493 5489 5485 5482 5480 5478
5531 5529 5528 5527 5527 5533 5530 5528 5522 5511 5512 5519 5525 5550 5566 5568 5566 5560 5556 5553 5550 5545 5542 5538 5534 5530 5525 5521 5518 5514 5511 5508 5505 5502 5499 5496 5493 5490 5486 5483 5480 5477 5474 5471
5524 5519 5519 5525 5522 5521 5525 5528 5522 5522 5513 5509 5520 5547 5570 5565 5562 5557 5553 5550 5546 5543 5539 5534 5530 5526 5521 5517 5513 5510 5507 5504 5501 5498 5494 5491 5487 5483 5480 5477 5473 5470 5467 5464
5520 5517 5521 5528 5522 5514 5516 5520 5520 5515 5508 5499 5506 5545 5563 5558 5556 5553 5549 5545 5542 5538 5534 5530 5525 5521 5518 5514 5510 5506 5502 5499 5496 5492 5489 5485 5481 5478 5474 5471 5467 5464 5460 5457
5516 5509 5518 5534 5535 5524 5514 5514 5513 5509 5502 5500 5516 5541 5557 5555 5551 5550 5546 5542 5537 5534 5531 5526 5522 5518 5515 5511 5507 5502 5498 5494 5491 5486 5482 5479 5475 5472 5468 5464 5461 5457 5453 5450
5508 5502 5499 5504 5506 5508 5510 5512 5508 5509 5513 5516 5533 5534 5554 5554 5550 5547 5543 5539 5535 5532 5528 5525 5521 5516 5512 5507 5503 5498 5494 5490 5486 5481 5477 5474 5470 5466 5462 5458 5454 5450 5446 5442
5494 5490 5488 5492 5496 5496 5501 5510 5507 5510 5513 5515 5522 5534 5553 5549 5544 5541 5539 5536 5533 5532 5529 5524 5520 5515 5510 5505 5500 5495 5490 5485 5480 5475 5471 5468 5463 5459 5455 5451 5447 5442 5438 5434
5481 5480 5485 5493 5483 5491 5506 5524 5516 5513 5515 5519 5526 5546 5549 5544 5542 5541 5538 5535 5533 5531 5528 5523 5519 5514 5509 5504 5499 5492 5487 5481 5475 5470 5465 5461 5456 5452 5448 5444 5439 5435 5430 5426
5475 5472 5467 5468 5482 5508 5544 5538 5527 5524 5527 5526 5534 5541 5542 5543 5541 5538 5536 5534 5532 5530 5526 5521 5516 5511 5505 5499 5494 5488 5481 5475 5469 5464 5459 5454 5449 5445 5440 5435 5431 5427 5422 5418
5474 5469 5458 5459 5476 5494 5528 5529 5520 5519 5532 5537 5535 5539 5536 5534 5530 5533 5535 5532 5532 5529 5524 5519 5513 5507 5501 5494 5488 5481 5475 5469 5463 5458 5453 5448 5443 5438 5433 5428 5424 5419 5414 5410
5462 5462 5454 5451 5477 5500 5545 5535 5524 5526 5535 5548 5537 5536 5530 5524 5521 5536 5538 5530 5526 5522 5517 5512 5506 5500 5495 5490 5483 5476 5469 5463 5458 5453 5448 5442 5436 5431 5426 5422 5416 5411 5407 5402
5450 5447 5448 5448 5461 5493 5525 5520 5519 5524 5545 5550 5537 5534 5526 5523 5532 5534 5529 5524 5520 5515 5510 5505 5499 5494 5490 5484 5476 5470 5464 5458 5454 5447 5441 5435 5430 5425 5419 5414 5409 5403 5397 5392
5462 5450 5444 5441 5456 5501 5515 5507 5516 5534 5540 5537 5531 5527 5522 5523 5523 5521 5518 5515 5511 5506 5502 5497 5491 5487 5482 5476 5470 5464 5458 5454 5446 5439 5433 5427 5422 5416 5411 5405 5400 5394 5388 5382
5467 5479 5473 5482 5510 5520 5508 5515 5521 5521 5524 5527 5524 5521 5517 5515 5514 5513 5510 5505 5501 5497 5493 5488 5483 5477 5472 5467 5462 5457 5452 5444 5438 5431 5425 5420 5414 5408 5402 5396 5391 5384 5379 5374
5462 5464 5465 5470 5494 5502 5501 5504 5508 5508 5512 5516 5514 5512 5508 5507 5507 5503 5500 5496 5492 5488 5483 5478 5472 5467 5462 5457 5453 5449 5443 5436 5429 5424 5418 5412 5405 5399 5393 5388 5383 5377 5371 5366
5470 5456 5457 5466 5486 5490 5499 5500 5504 5502 5500 5500 5500 5499 5498 5497 5496 5494 5491 5488 5484 5480 5474 5468 5463 5459 5454 5448 5443 5438 5432 5427 5421 5416 5409 5403 5397 5391 5384 5379 5374 5370 5366 5360
5466 5463 5467 5490 5493 5490 5504 5506 5500 5494 5493 5493 5491 5490 5488 5486 5487 5485 5481 5478 5474 5469 5464 5458 5453 5448 5443 5437 5432 5427 5423 5418 5413 5407 5401 5394 5388 5381 5376 5370 5365 5362 5358 5353